Location: Lecco
(45.8566°N, 9.3977°E)
Time: 13:57:21
(UTC+02:00)

Courier 1B Rocket - Visible Passes

Search period start: 22 October 2020 00:00
Search period end: 31 October 2020 23:00
Orbit: 920 x 1202 km, 28.2° (Epoch: 21 October)

Date Brightness Start Highest point End Pass type
(mag) Time Alt. Az. Time Alt. Az. Time Alt. Az.
24 Oct 7.6 21:47:27 10° SSW 21:47:29 10° SSW 21:47:29 10° SSW visible
25 Oct 7.1 19:47:36 10° SSW 19:50:15 14° S 19:50:15 14° S visible
26 Oct 7.2 18:48:54 10° S 18:50:30 11° SSE 18:52:07 10° SE visible
26 Oct 7.3 20:37:54 10° SSW 20:39:22 14° SSW 20:39:22 14° SSW visible
27 Oct 6.9 19:37:43 10° SSW 19:41:56 16° SSE 19:42:05 16° SSE visible
28 Oct 7.1 18:38:01 10° S 18:41:13 13° SSE 18:44:29 10° SE visible
28 Oct 7.1 20:28:38 10° SW 20:31:09 17° SSW 20:31:09 17° SSW visible
29 Oct 6.9 19:28:14 10° SSW 19:32:43 18° S 19:33:50 17° SSE visible
30 Oct 7.1 18:28:09 10° SSW 18:31:58 16° SSE 18:35:55 10° SE visible
30 Oct 7.0 20:19:38 10° SW 20:22:52 18° SSW 20:22:52 18° SSW visible
31 Oct 6.9 19:19:02 10° SW 19:23:31 18° S 19:25:34 16° SSE visible
